Regional Weather Roundup
Issued by NWS

Home | Current Version | Previous Version | Text Only | Print | Product List | Glossary Off
Versions: 1 2 3 4 5 6 7 8 9 10 11 12 13 14 15 16 17 18 19 20 21 22 23 24 25 26 27 28 29 30 31 32 33 34 35 36 37 38 39 40 41 42 43 44 45 46 47 48 49 50

000
ASUS43 KLOT 280410
RWRIL

ILLINOIS REGIONAL WEATHER ROUNDUP
NATIONAL WEATHER SERVICE CHICAGO/ROMEOVILLE IL
1000 PM CST THU NOV 27 2014

NOTE: "FAIR" INDICATES FEW OR NO CLOUDS BELOW 12,000 FEET WITH NO
SIGNIFICANT WEATHER AND/OR OBSTRUCTIONS TO VISIBILITY.

* THESE STATIONS ARE NOT UNDER NWS QUALITY CONTROL. THEY ALSO MAY NOT
  REPORT WEATHER SUCH AS PRECIPITATION OR FOG.

ILZ001-002-007-009-015-016-024-280500-
NORTHWEST ILLINOIS

CITY           SKY/WX    TMP DP  RH WIND       PRES   REMARKS
MOLINE         PTCLDY    13   6  74 SW3       30.41S
STERLING*      PTCLDY     9   3  78 CALM      30.40F
SAVANNA*       PTCLDY    11   6  81 E3        30.39F
$$

ILZ003-004-008-010-011-017-018-280500-
NORTH CENTRAL ILLINOIS

CITY           SKY/WX    TMP DP  RH WIND       PRES   REMARKS
ROCKFORD       MOCLDY    13   2  61 CALM      30.42S
FREEPORT*      PTCLDY    10   2  72 CALM      30.40F
ROCHELLE*      PTCLDY     6   3  86 CALM      30.41S
DE KALB*       PTCLDY    10   4  78 W5        30.40S WCI   1
PERU*          CLEAR     12   6  77 NW6       30.42F WCI   3
$$

ILZ005-006-012>014-019>023-280500-
NORTHEAST ILLINOIS

CITY           SKY/WX    TMP DP  RH WIND       PRES   REMARKS
CHICAGO-OHARE  PTCLDY    15   9  76 CALM      30.40R
CHICAGO-MIDWAY PTCLDY    20  10  65 NW5       30.41S WCI  13
AURORA         PTCLDY    11   5  77 W5        30.41S WCI   3
LANSING*       PTCLDY    20  10  66 NW3       30.41S
JOLIET*        PTCLDY    16  11  81 CALM      30.42S
WAUKEGAN       PTCLDY     9   6  88 NW3       30.38S
DUPAGE AIRPORT PTCLDY    13   9  84 W3        30.39S
KANKAKEE*      CLOUDY   N/A N/A N/A W8        30.43R
WHEELING       CLEAR     15  10  80 CALM      30.42S
MORRIS*        PTCLDY    14  12  92 W6        30.42S WCI   5
ROMEOVILLE*    PTCLDY    15  11  83 W5        30.41S WCI   8
NORTHERLY ISL    N/A     20  10  65 W5          N/A  WCI  14
$$

LMZ740>746-280500-
SOUTHERN LAKE MICHIGAN

STATION/POSITION SKY/WX   TEMP    WIND        PRES    VSBY  WAVE
                          AIR SEA DIR/SP/G                  HT/PER
                          (F)     (DEG/KT/KT) (MB)    (MI)  (FT/S)
SOUTHERN BUOY              23 42  300/  8/ 12 1029.6R         4/ 6
WAUKEGAN HARBOR            16     320/  3/  5   N/A
HARRISON CRIB              20     280/  7/  9   N/A
BURNHAM HARBOR             20     260/  3/  8   N/A
CALUMET HARBOR             19     290/  5/  7 1028.4S
MICHIGAN CITY              23     270/ 10/ 14   N/A
$$

ILZ025>027-034>036-040-047-049-050-058-095>099-280500-
WEST-CENTRAL ILLINOIS

CITY           SKY/WX    TMP DP  RH WIND       PRES   REMARKS
QUINCY         CLOUDY    18   7  62 E7        30.41F WCI   9
GALESBURG*     PTCLDY    10   6  84 SW5       30.41S WCI   2
MACOMB*        PTCLDY    11   5  76 CALM      30.44F
JACKSONVILLE*  CLOUDY    17  11  80 E3        30.44F
PITTSFIELD*    CLOUDY    20  13  75 E3        30.44F
$$

ILZ028>032-037-038-041>044-048-051>054-059>061-280500-
CENTRAL ILLINOIS

CITY           SKY/WX    TMP DP  RH WIND       PRES   REMARKS
PONTIAC        CLEAR     15  10  80 W5        30.43F WCI   7
BLOOMINGTON    CLEAR     15  11  84 CALM      30.41F
DECATUR        PTCLDY    13   5  70 CALM      30.43S
PEORIA         PTCLDY    15   9  76 W3        30.43F
LACON*         PTCLDY    11   7  82 CALM      30.42F
LINCOLN*       PTCLDY    11   6  79 CALM      30.44F
SPRINGFIELD    PTCLDY     9   7  92 CALM      30.45R
TAYLORVILLE    PTCLDY    12   9  85 CALM      30.45R
$$

ILZ033-039-045-046-055>057-062-063-280500-
EAST-CENTRAL ILLINOIS

CITY           SKY/WX    TMP DP  RH WIND       PRES   REMARKS
CHAMPAIGN      CLEAR     13   9  84 NW6       30.43S WCI   4
DANVILLE*      CLOUDY    21  14  73 NW3       30.40R
RANTOUL*       MOCLDY    19  12  75 NW7       30.43R WCI  10
MATTOON        PTCLDY    15  10  80 W5        30.42F WCI   8
PARIS*         FAIR      17  15  91 W6        30.45R WCI   9
$$

ILZ079-100>102-280500-
SOUTHWEST ILLINOIS

CITY           SKY/WX    TMP DP  RH WIND       PRES   REMARKS
ALTON          CLEAR     22  17  83 CALM      30.45R
BELLEVILLE     CLOUDY    22  19  88 E2        30.44F
CAHOKIA*       PTCLDY    26  20  77 SE5       30.45F WCI  20
SPARTA*        PTCLDY    22  20  91 CALM      30.46F
$$

ILZ064>066-069>071-074>076-080>082-084>086-088>090-092>094-280500-
SOUTH-CENTRAL ILLINOIS

CITY           SKY/WX    TMP DP  RH WIND       PRES   REMARKS
CARBONDALE     CLEAR     24  22  91 CALM      30.46F FOG
CAIRO*         CLEAR     29  26  86 CALM      30.46F FOG
EFFINGHAM*     MOCLDY    14  10  85 CALM      30.45F FOG
MARION         CLEAR     25  21  86 E3        30.46F
MT. VERNON     PTCLDY    19  16  86 CALM      30.46S
CENTRALIA*     PTCLDY    17  15  89 S3        30.44F
SALEM*           N/A     21  18  90 CALM      30.43F
METROPOLIS*    PTCLDY    26  26 100 CALM        N/A  FOG
$$

ILZ067-068-072-073-078-083-087-091-280500-
SOUTHEAST ILLINOIS

CITY           SKY/WX    TMP DP  RH WIND       PRES   REMARKS
LAWRENCEVILLE  PTCLDY    22  18  85 CALM      30.46F
FLORA*         PTCLDY    16  15  97 CALM      30.46F FOG
FAIRFIELD*     CLEAR     20  18  93 CALM      30.45F
HARRISBURG*    CLEAR     24  24  99 CALM      30.48F FOG
ROBINSON*      PTCLDY    19  16  87 CALM      30.47F
CARMI*         FOG       20  20 100 CALM      30.47S VSB 1/2
$$

ABBREVIATIONS USED IN REMARKS
   TC - TEMPERATURE IN CELSIUS
  WCI - WIND CHILL INDEX
   HX - HEAT INDEX
  VSB - VISIBILITY
$$




USA.gov is the U.S. government's official web portal to all federal, state and local government web resources and services.